Content
SEND FEEDBACK

Daily
Averages
Monthly
Summary
United States of America

ARCADIA, LOUISIANA


Home > North America > United States > Louisiana
Elevation: 400 feet     Latitude: 32 33N     Longitude: 092 55W

WEATHER
 
SELECT A DAY
Number of Records: 227,839;   Date Range: 10/26/00 - 11/25/14
 
SHARE

PRINT THIS DATA

[ ← Previous Day ]
WEATHER ALMANAC - FEBRUARY 13, 2013
[ Next Day → ]
[ °C ]   °F
Weather ElementAverageHighLow
Temperature44.7 °F52 °F (1:55 pm)34.5 °F (11:55 pm)
Dewpoint39.4 °F46 °F (1:15 am)34.3 °F (2:35 pm)
Humidity83.8 %100 % (12:35 am)52 % (2:35 pm)
Barometer30.06 in30.13 in (9:55 am)29.91 in (12:35 am)
Wind Speed4.8 mph11.5 mph (3:15 am)
Wind Gust17.3 mph (3:15 am)
Weather ElementAverage
Visibility9.6 mi
Wind DirectionSSW (217.2 °)

Weather ElementTotal
Precipitation0.02 in
Heating Degree Days21.8 (Base 65)
Averaged from 68 records on February 13, 2013
WEATHER CONDITIONS BREAKOUT
WIND DIRECTION BREAKOUT
WEATHER BY HOUR - FEBRUARY 13, 2013
[ °C ]   °F
Local TimeTemperatureDewpointHumidityBarometerVisibilityWind DirectionWind SpeedGust SpeedPrecipitationEventsConditions
12:35 AM45.5 °F45.5 °F100 %29.91 in10.0 miWest (270°)3.5 mphOvercast
12:55 AM45.7 °F45.7 °F100 %29.91 in10.0 miWest (270°)3.5 mphOvercast
1:15 AM46.0 °F46.0 °F100 %29.92 in10.0 miWNW (290°)5.8 mphOvercast
1:35 AM45.9 °F45.9 °F100 %29.92 in4.0 miWNW (290°)5.8 mphRainRain
1:55 AM45.9 °F45.9 °F100 %29.93 in10.0 miWNW (290°)9.2 mphOvercast
2:15 AM46.0 °F46.0 °F100 %29.93 in10.0 miWNW (300°)5.8 mphOvercast
2:35 AM46.4 °F45.3 °F96 %29.95 in10.0 miWest (280°)8.1 mphOvercast
2:55 AM46.2 °F44.6 °F94 %29.96 in10.0 miWest (260°)5.8 mphOvercast
3:15 AM46.2 °F42.8 °F88 %29.96 in10.0 miWNW (290°)11.5 mph17.3 mphOvercast
3:35 AM45.9 °F42.4 °F88 %29.97 in10.0 miWNW (300°)6.9 mphOvercast
3:55 AM45.7 °F42.3 °F88 %29.97 in10.0 miWNW (290°)6.9 mphOvercast
4:15 AM45.7 °F42.3 °F88 %29.98 in10.0 miWNW (300°)4.6 mphOvercast
4:35 AM45.5 °F42.3 °F88 %30.00 in10.0 miWest (280°)8.1 mphOvercast
4:55 AM45.5 °F41.2 °F85 %30.01 in10.0 miWNW (290°)4.6 mphOvercast
5:15 AM45.1 °F41.2 °F86 %30.02 in10.0 miWest (280°)5.8 mphOvercast
5:55 AM44.8 °F40.8 °F86 %30.01 in10.0 miNW (310°)4.6 mphOvercast
6:15 AM44.6 °F40.8 °F87 %30.02 in10.0 miWNW (300°)5.8 mphOvercast
6:35 AM44.6 °F41.0 °F87 %30.03 in10.0 miWest (280°)8.1 mphOvercast
6:55 AM44.4 °F40.3 °F85 %30.03 in10.0 miWNW (300°)5.8 mphOvercast
7:15 AM44.2 °F40.1 °F85 %30.05 in10.0 miNW (310°)5.8 mphOvercast
7:35 AM43.9 °F41.0 °F90 %30.06 in5.0 miWNW (290°)6.9 mphDrizzle
7:55 AM43.3 °F42.4 °F97 %30.07 in7.0 miWNW (290°)3.5 mphDrizzle
8:15 AM43.3 °F43.3 °F100 %30.08 in10.0 miCalmRainLight Rain
8:35 AM43.0 °F43.0 °F100 %30.10 in4.0 miWNW (290°)4.6 mph0.01 inRainHeavy Rain
8:55 AM42.3 °F42.3 °F100 %30.11 in4.0 miWNW (290°)6.9 mph0.01 inRainRain
9:15 AM42.8 °F42.8 °F100 %30.12 in10.0 miNW (310°)5.8 mphOvercast
9:35 AM43.0 °F41.9 °F96 %30.12 in10.0 miNW (320°)5.8 mphOvercast
9:55 AM43.9 °F41.4 °F91 %30.13 in10.0 miNW (320°)5.8 mphOvercast
10:15 AM45.3 °F40.5 °F83 %30.13 in10.0 miNNW (330°)8.1 mphOvercast
10:55 AM45.9 °F39.6 °F79 %30.13 in10.0 miNNW (330°)8.1 mphOvercast
11:15 AM46.8 °F38.8 °F74 %30.12 in10.0 miNW (320°)9.2 mphScattered Clouds
11:35 AM47.3 °F38.1 °F70 %30.12 in10.0 miNNW (330°)8.1 mphMostly Cloudy
11:55 AM46.6 °F37.2 °F70 %30.11 in10.0 miNNW (330°)6.9 mphOvercast
12:15 PM48.4 °F36.9 °F64 %30.11 in10.0 miNNW (340°)6.9 mphMostly Cloudy
12:35 PM48.7 °F35.8 °F61 %30.10 in10.0 miNNW (340°)9.2 mphOvercast
12:55 PM50.0 °F36.1 °F59 %30.09 in10.0 miNorth (350°)6.9 mphOvercast
1:15 PM49.1 °F35.6 °F60 %30.09 in10.0 miNorth (350°)10.4 mphOvercast
1:35 PM50.7 °F35.4 °F56 %30.08 in10.0 miNNW (340°)8.1 mphMostly Cloudy
1:55 PM52.0 °F35.1 °F53 %30.08 in10.0 miNW (310°)9.2 mphMostly Cloudy
2:15 PM50.5 °F34.9 °F55 %30.07 in10.0 miNNW (340°)11.5 mphOvercast
2:35 PM51.3 °F34.3 °F52 %30.06 in10.0 miNorth (10°)6.9 mphOvercast
2:55 PM51.1 °F35.6 °F55 %30.06 in10.0 miNorth (360°)6.9 mphOvercast
3:15 PM50.0 °F35.1 °F57 %30.07 in10.0 miWNW (290°)4.6 mphMostly Cloudy
3:35 PM51.8 °F34.7 °F52 %30.07 in10.0 miWest (280°)4.6 mphMostly Cloudy
3:55 PM51.3 °F35.1 °F54 %30.07 in10.0 miWNW (300°)5.8 mphOvercast
4:15 PM51.3 °F35.1 °F54 %30.07 in10.0 miNNW (330°)4.6 mphMostly Cloudy
4:35 PM51.1 °F36.0 °F56 %30.07 in10.0 miWest (280°)6.9 mphMostly Cloudy
4:55 PM51.4 °F35.1 °F54 %30.07 in10.0 miCalmOvercast
5:15 PM50.9 °F36.3 °F57 %30.08 in10.0 miNW (320°)4.6 mphOvercast
5:35 PM49.6 °F36.3 °F60 %30.08 in10.0 miCalmScattered Clouds
5:55 PM46.9 °F38.1 °F71 %30.08 in10.0 miCalmScattered Clouds
6:15 PM43.7 °F40.3 °F88 %30.08 in10.0 miCalmClear
6:55 PM40.5 °F40.5 °F100 %30.09 in10.0 miCalmClear
7:15 PM39.9 °F39.9 °F100 %30.09 in10.0 miSW (230°)3.5 mphClear
7:35 PM39.7 °F39.7 °F100 %30.09 in10.0 miSW (230°)3.5 mphClear
7:55 PM40.1 °F40.1 °F100 %30.09 in10.0 miCalmClear
8:15 PM41.0 °F40.8 °F99 %30.10 in10.0 miCalmClear
8:35 PM39.7 °F39.6 °F99 %30.10 in10.0 miWSW (240°)3.5 mphClear
8:55 PM38.5 °F38.5 °F100 %30.11 in10.0 miCalmClear
9:15 PM36.9 °F36.9 °F100 %30.11 in7.0 miCalmClear
9:35 PM36.3 °F36.3 °F100 %30.12 in10.0 miCalmClear
9:55 PM36.1 °F36.1 °F100 %30.12 in10.0 miCalmClear
10:15 PM35.8 °F35.8 °F100 %30.13 in10.0 miCalmClear
10:35 PM36.3 °F36.3 °F100 %30.13 in10.0 miCalmClear
10:55 PM35.6 °F35.6 °F100 %30.13 in10.0 miCalmClear
11:15 PM35.1 °F35.1 °F100 %30.13 in10.0 miCalmClear
11:35 PM36.0 °F36.0 °F100 %30.13 in10.0 miCalmClear
11:55 PM34.5 °F34.5 °F100 %30.13 in10.0 miCalmClear
Hourly data recorded from KRSN, located miles away from Arcadia, Louisiana







STORIES FROM OUR PARTNERS